Flag for Russia Weather past 2 weeks in Pyatigorsk, Russia

Now
39 °F

Partly sunny.


Feels Like: 37 °F
Forecast: 29 / 44 °F
Wind: 3 mph from Northwest

Location: Mineral'Nye Vody

Current Time: Dec 19, 2014 at 10:30:19 AM

Latest Report: Dec 19, 2014 at 10:00 AM


Visibility: N/A

Pressure: 30.07 "Hg

Humidity: 93%

Dew point: 37 °F

Location of PyatigorskLocation

Historic Weather in Pyatigorsk — Graph

°F

Pyatigorsk temperature yesterday

Maximum temperature yesterday: 37 °F (at 2:30 PM)
Minimum temperature yesterday: 30 °F (at 4:00 AM)
Average temperature yesterday: 33 °F

Past Weeks' High & Low Weather Summary

 TemperatureHumidityPressure
High61 °F (Dec 11, 2:30 PM)100% (Dec 4, 3:30 PM)30.51 "Hg (Dec 4, 3:30 PM)
Low18 °F (Dec 5, 9:30 PM)59% (Dec 11, 2:00 PM)29.98 "Hg (Dec 12, 10:00 PM)
Average32 °F95%30.23 "Hg
* Reported Dec 4 9:00 AM — Dec 19 9:30 AM, Pyatigorsk, Weather by CustomWeather, © 2014

Note: Actual official high and low records may vary slightly from our data, if they occured in-between our weather recording intervals... More about our weather records

Advertising

Pyatigorsk weather history for previous 24 hours

 ConditionsComfort  
Time TempWeatherWind HumidityBarometerVisibility
9:30 AM
Dec 19
36 °FPartly sunny.3 mph93%30.04 "HgN/A
9:00 AM34 °FPartly sunny.3 mph87%30.04 "HgN/A
8:30 AM32 °FPartly cloudy.3 mph87%30.04 "HgN/A
8:00 AM32 °FPartly cloudy.3 mph87%30.04 "HgN/A
7:30 AM30 °FPartly cloudy.No wind93%30.01 "HgN/A
7:00 AM30 °FPartly cloudy.1 mph100%30.01 "Hg4 mi
6:30 AM30 °FIce fog.1 mph93%30.01 "Hg3 mi
6:00 AM30 °FIce fog.1 mph93%30.01 "Hg3 mi
5:30 AM28 °FIce fog.3 mph100%30.01 "Hg3 mi
5:00 AM28 °FIce fog.3 mph93%30.01 "Hg2 mi
4:30 AM27 °FIce fog.No wind100%30.01 "Hg1 mi
4:00 AM27 °FIce fog.No wind100%30.01 "Hg1 mi
3:30 AM27 °FIce fog.No wind100%30.01 "Hg0 mi
3:00 AM27 °FIce fog.1 mph100%30.01 "Hg0 mi
2:30 AM27 °FIce fog.No wind100%30.01 "Hg0 mi
2:00 AM28 °FIce fog.1 mph100%30.01 "Hg0 mi
1:30 AM28 °FIce fog.1 mph100%30.01 "Hg0 mi
1:00 AM30 °FIce fog.3 mph100%30.01 "Hg0 mi
12:30 AM30 °FIce fog.3 mph100%30.01 "Hg0 mi
12:00 AM30 °FIce fog.1 mph100%30.01 "Hg0 mi
11:30 PM
Dec 18
30 °FIce fog.3 mph100%29.98 "Hg0 mi
11:00 PM30 °FIce fog.1 mph100%30.01 "Hg0 mi
10:30 PM30 °FIce fog.No wind93%30.01 "Hg1 mi
10:00 PM30 °FIce fog.3 mph93%30.01 "Hg2 mi
9:30 PM30 °FIce fog.3 mph100%30.01 "Hg2 mi
9:00 PM32 °FIce fog.No wind100%30.01 "Hg2 mi
8:30 PM32 °FIce fog.1 mph93%30.01 "Hg2 mi
8:00 PM32 °FIce fog.3 mph100%30.01 "Hg2 mi
7:30 PM32 °FIce fog.3 mph93%30.01 "Hg2 mi
7:00 PM34 °FFog.1 mph93%30.01 "Hg2 mi
6:30 PM34 °FFog.1 mph93%30.01 "Hg2 mi
6:00 PM34 °FFog.3 mph93%30.01 "Hg2 mi
5:30 PM34 °FFog.1 mph93%30.01 "Hg3 mi
5:00 PM34 °FBroken clouds.3 mph100%30.01 "HgN/A
4:30 PM36 °FBroken clouds.3 mph93%30.01 "HgN/A
4:00 PM37 °FBroken clouds.3 mph87%30.01 "HgN/A
3:30 PM37 °FBroken clouds.3 mph87%30.01 "HgN/A
3:00 PM37 °FBroken clouds.3 mph87%30.01 "HgN/A
2:30 PM37 °FPartly sunny.1 mph87%30.01 "Hg4 mi
2:00 PM36 °FFog.1 mph93%30.01 "Hg3 mi
1:30 PM36 °FFog.3 mph87%29.98 "Hg3 mi
1:00 PM34 °FFog.1 mph93%30.01 "Hg3 mi
12:30 PM34 °FFog.3 mph93%30.01 "Hg3 mi
12:00 PM34 °FMostly cloudy.1 mph93%30.01 "HgN/A
11:30 AM34 °FPartly sunny.1 mph93%30.04 "Hg4 mi
11:00 AM32 °FLow clouds.3 mph93%30.07 "Hg4 mi
10:30 AM32 °FLow clouds.3 mph93%30.07 "Hg4 mi
10:00 AM32 °FLow clouds.No wind93%30.07 "Hg4 mi
Weather by CustomWeather, © 2014

See weather overviewHow to use our weather pages